sat.trackr.live / text

‹ back to catalog

STARLINK-33798

NORAD 63449 · 2025-069S

PAYLOAD ACTIVE UNKNOWN

§ Identity

Operator
Country
US
Launch date
2025-04-04
Launch site
AFWTR
Launch vehicle
Mass (kg)
RCS (m²)

Purposes: comms

External: N2YO · Heavens-Above · Gunter

§ Orbital elements

Epoch: 2026-05-25T03:40:14.176704Z

Period
93.37 min
Inclination
53.1579°
Eccentricity
0.0001202
Mean motion
15.42174178 rev/d
Perigee alt
438.9 km
Apogee alt
440.5 km
Semi-major
6,817.8 km
B*
4.5424e-4
RAAN
145.0180°
Arg perigee
33.6707°
Mean anomaly
326.4375°
Rev number
6,487

§ Raw data

STARLINK-337981 63449U 25069S   26145.15294186  .00019415  00000+0  45424-3 0  99932 63449  53.1579 145.0180 0001202  33.6707 326.4375 15.42174178 64873

JSON: /api/v1/satellites/63449 · /tle

For live sub-satellite position, see the globe view (requires WebGL).

§ Visibility from observer

Set your observer location to see the next 7 days of passes ≥ 10°. The values pass through the URL so the page stays shareable.

No JS? Fill the form by hand. The geolocation button needs JavaScript.